Tracking 25693 objects as of 1-Jul-2022
HD Live streaming from Space Station
objects crossing your sky now

STARLINK-3650

Track STARLINK-3650 now!
10-day predictions
STARLINK-3650 is classified as:


NORAD ID: 51982
Int'l Code: 2022-025AC
Perigee: 545.9 km
Apogee: 548.0 km
Inclination: 53.2 °
Period: 95.4 minutes
Semi major axis: 6917 km
RCS: Unknown
Launch date: March 9, 2022
Source: United States (US)
Launch site: AIR FORCE EASTERN TEST RANGE (AFETR)
aabbcc
Your satellite tracking list
Your tracking list is empty




NASA's NSSDC Master Catalog

Two Line Element Set (TLE):
1 51982U 22025AC  22181.83334491  .00046241  00000-0  29066-2 0  9997
2 51982  53.2147 329.8771 0001507  54.9635  71.0623 15.08813605 18680
Source of the keplerian elements: AFSPC